Regional Weather Roundup
Issued by NWS

Home | Current Version | Previous Version | Text Only | Print | Product List | Glossary Off
Versions: 1 2 3 4 5 6 7 8 9 10 11 12 13 14 15 16 17 18 19 20 21 22 23 24 25 26 27 28 29 30 31 32 33 34 35 36 37 38 39 40 41 42 43 44 45 46 47 48 49 50

852
ASUS43 KFSD 231310
RWRSD

WEATHER ROUNDUP FOR SOUTH DAKOTA
NATIONAL WEATHER SERVICE SIOUX FALLS SD
800 AM CDT SAT SEP 23 2017

NOTE: "FAIR" INDICATES FEW OR NO CLOUDS BELOW 12,000 FEET WITH NO
SIGNIFICANT WEATHER AND/OR OBSTRUCTIONS TO VISIBILITY.


SDZ001>005-009-010-012>017-231400-
NORTHWEST AND NORTH CENTRAL SOUTH DAKOTA

CITY           SKY/WX    TMP DP  RH WIND       PRES   REMARKS
BUFFALO          N/A     43  40  89 NE7       30.01F
FAITH            N/A     45  45 100 N13       30.05F
MOBRIDGE       CLOUDY    51  46  83 N10       30.02R
$$

SDZ012>016-024>037-041>051-057-063-072>074-231400-
SOUTHWEST AND SOUTH CENTRAL SOUTH DAKOTA

CITY           SKY/WX    TMP DP  RH WIND       PRES   REMARKS
RAPID CTY ARPT CLOUDY    43  41  93 N13       30.05S
PIERRE         CLOUDY    50  47  89 N9        30.02R
CUSTER         CLOUDY    38  36  92 E7        30.06R FOG
ELLSWORTH AFB  CLOUDY    44  44 100 N6        30.07R
PHILIP         CLOUDY    48  44  86 N15       30.03F
PINE RIDGE     CLOUDY    45  42  89 N5        30.05R
SPEARFISH      FOG       41  41 100 NE7       30.07R VSB<1/4
WINNER         LGT RAIN  51  49  92 N15       29.95F
$$

SDZ004>011-016>023-039-040-231400-
NORTHEAST SOUTH DAKOTA

CITY           SKY/WX    TMP DP  RH WIND       PRES   REMARKS
ABERDEEN       CLOUDY    52  51  97 N9        30.00S
WATERTOWN      CLOUDY    55  55 100 N7        29.98R
BROOKINGS      CLOUDY    59  56  89 E6        29.96R
SISSETON         N/A     55  53  93 N5        29.99R
$$

SDZ017-020-022-023-036>040-048>070-231400-
SOUTHEAST SOUTH DAKOTA

CITY           SKY/WX    TMP DP  RH WIND       PRES   REMARKS
SIOUX FALLS    CLOUDY    62  60  93 NE7       29.95R
HURON          CLOUDY    53  53 100 N9        29.97S
CHAMBERLAIN    CLOUDY    53  53 100 W5        30.02S
MITCHELL       CLOUDY    56  54  93 N5        29.96F
YANKTON        CLOUDY    56  53  90 NW3       29.96S
$$

ABBREVIATIONS USED IN REMARKS
   TC - TEMPERATURE IN CELSIUS
  WCI - WIND CHILL INDEX
   HX - HEAT INDEX
  VSB - VISIBILITY





USA.gov is the U.S. government's official web portal to all federal, state and local government web resources and services.